Regional Weather Roundup
Issued by NWS

Home | Current Version | Previous Version | Graphics & Text | Print | Product List | Glossary On
Versions: 1 2 3 4 5 6 7 8 9 10 11 12 13 14 15 16 17 18 19 20 21 22 23 24 25 26 27 28 29 30 31 32 33 34 35 36 37 38 39 40 41 42 43 44 45 46 47 48 49 50
000
ASUS43 KFSD 040902
RWRSD

WEATHER ROUNDUP FOR SOUTH DAKOTA
NATIONAL WEATHER SERVICE SIOUX FALLS SD
400 AM CDT TUE AUG 04 2015

NOTE: "FAIR" INDICATES FEW OR NO CLOUDS BELOW 12,000 FEET WITH NO
SIGNIFICANT WEATHER AND/OR OBSTRUCTIONS TO VISIBILITY.


SDZ001>005-009-010-012>017-041000-
NORTHWEST AND NORTH CENTRAL SOUTH DAKOTA

CITY           SKY/WX    TMP DP  RH WIND       PRES   REMARKS
FAITH            N/A     63  53  70 S10       29.96R
MOBRIDGE       PTCLDY    63  56  78 E10       29.91F
$$

SDZ012>016-024>037-041>051-057-063-072>074-041000-
SOUTHWEST AND SOUTH CENTRAL SOUTH DAKOTA

CITY           SKY/WX    TMP DP  RH WIND       PRES   REMARKS
RAPID CTY ARPT CLOUDY    66  58  75 E3        29.93F
PIERRE         MOCLDY    67  56  67 SE9       29.92R
CUSTER         PTCLDY    58  54  86 N3        30.06F
ELLSWORTH AFB  CLOUDY    67  59  74 S3        29.93F
PHILIP         TSTM      67  63  87 NE18G26   29.95R
PINE RIDGE     CLEAR     67  62  84 SW7       29.90F
WINNER         TSTM      67  62  84 SW10      29.98R
$$

SDZ004>011-016>023-039-040-041000-
NORTHEAST SOUTH DAKOTA

CITY           SKY/WX    TMP DP  RH WIND       PRES   REMARKS
ABERDEEN       CLEAR     56  51  84 NE3       29.96S
WATERTOWN      CLEAR     55  50  83 CALM      29.97F
BROOKINGS      CLEAR     55  50  82 CALM      29.99S
$$

SDZ017-020-022-023-036>040-048>070-041000-
SOUTHEAST SOUTH DAKOTA

CITY           SKY/WX    TMP DP  RH WIND       PRES   REMARKS
SIOUX FALLS    CLEAR     59  56  89 E5        29.96S
HURON          CLEAR     59  55  87 SE5       29.93F
CHAMBERLAIN    CLOUDY    65  58  78 SE7       29.95R
MITCHELL       MOCLDY    60  57  89 SE5       29.94F
YANKTON        CLOUDY    64  63  94 CALM      29.95R
$$

ABBREVIATIONS USED IN REMARKS
   TC - TEMPERATURE IN CELSIUS
  WCI - WIND CHILL INDEX
   HX - HEAT INDEX
  VSB - VISIBILITY




USA.gov is the U.S. government's official web portal to all federal, state and local government web resources and services.